Flag for Mexico Weather past 2 weeks in Merida, Yucatán, Mexico

Now
90 °F

Partly sunny.


Feels Like: 95 °F
Forecast: 77 / 99 °F
Wind: 18 mph from Southeast

Location: Aerop. Internacional Merida - Yuc

Current Time: Apr 19, 2015 at 11:15:29 AM

Latest Report: Apr 19, 2015 at 10:45 AM


Visibility: 7 mi

Pressure: 29.87 "Hg

Humidity: 52%

Dew point: 70 °F

Location of MeridaLocation

Historic Weather in Merida — Graph

°F

Merida temperature yesterday

Maximum temperature yesterday: 104 °F (at 3:47 PM)
Minimum temperature yesterday: 75 °F (at 6:45 AM)
Average temperature yesterday: 87 °F

Past Weeks' High & Low Weather Summary

 TemperatureHumidityPressure
High104 °F (Apr 18, 3:47 PM)94% (Apr 10, 6:47 AM)30.08 "Hg (Apr 10, 6:47 AM)
Low72 °F (Apr 5, 6:51 AM)24% (Apr 18, 3:47 PM)29.72 "Hg (Apr 18, 4:46 PM)
Average85 °F60%29.93 "Hg
* Reported Apr 4 9:45 AM — Apr 19 9:45 AM, Merida, Weather by CustomWeather, © 2015

Note: Actual official high and low records may vary slightly from our data, if they occured in-between our weather recording intervals... More about our weather records

Advertising

Merida weather history for previous 24 hours

 ConditionsComfort  
Time TempWeatherWind HumidityBarometerVisibility
9:45 AM
Sun, Apr 19
86 °FPartly sunny.16 mph62%29.87 "Hg7 mi
8:45 AM82 °FOvercast.16 mph74%29.86 "Hg7 mi
7:45 AM79 °FHigh level clouds.14 mph84%29.85 "Hg6 mi
6:51 AM77 °FPassing clouds.9 mph89%29.86 "Hg6 mi
5:52 AM77 °FPassing clouds.12 mph89%29.82 "Hg7 mi
4:52 AM79 °FClear.17 mph79%29.80 "Hg7 mi
3:52 AM79 °FClear.12 mph79%29.86 "Hg7 mi
2:54 AM79 °FClear.17 mph79%29.82 "Hg7 mi
1:54 AM81 °FClear.9 mph74%29.85 "Hg7 mi
12:54 AM82 °FClear.17 mph66%29.86 "Hg7 mi
11:53 PM
Sat, Apr 18
84 °FClear.16 mph62%29.85 "Hg7 mi
10:47 PM86 °FClear.17 mph55%29.83 "Hg7 mi
9:46 PM90 °FClear.14 mph49%29.84 "Hg7 mi
8:42 PM84 °FClear.6 mph62%29.79 "Hg6 mi
7:48 PM86 °FScattered clouds.6 mph59%29.78 "Hg6 mi
5:41 PM100 °FBroken clouds.9 mph27%29.73 "Hg6 mi
4:46 PM102 °FBroken clouds.15 mph26%29.72 "Hg6 mi
3:47 PM104 °FBroken clouds.21 mph24%29.75 "Hg6 mi
1:44 PM97 °FPartly sunny.17 mph37%29.80 "Hg7 mi
12:45 PM95 °FPartly sunny.15 mph39%29.84 "Hg7 mi
11:43 AM93 °FPartly sunny.20 mph47%29.87 "Hg7 mi
Weather by CustomWeather, © 2015

See weather overviewHow to use our weather pages